Weather History for Mora, MN

Change the Weather History Date:

Wednesday, January 29, 2014

  Actual Average Record
Temperature  
Mean Temperature 2 °F -  
Max Temperature 24 °F 22 °F 39 °F (1974)
Min Temperature -20 °F -2 °F -35 °F (1951)
Degree Days  
Heating Degree Days 63    
Moisture  
Dew Point -3 °F    
Average Humidity 65    
Maximum Humidity 84    
Minimum Humidity 43    
Precipitation  
Precipitation 0.00 in - - ()
Sea Level Pressure  
Sea Level Pressure 29.76 in    
Wind  
Wind Speed 5 mph (SSW)    
Max Wind Speed 14 mph    
Max Gust Speed 23 mph    
Visibility 10 miles    
Events      
Averages and records for this station are not official NWS values.
T = Trace of Precipitation, MM = Missing Value Source: NWS Daily Summary

Daily Weather History Graph

Daily Weather History Graph

Search for Another Location

Airport:

Trip Planner

Search our weather history database for the weather conditions in past years. The results will help you decide how hot, cold, wet, or windy it might be!

Date:

Astronomy

Jan. 29, 2014 Rise Set
Actual Time 7:38 AM CST 5:14 PM CST
Civil Twilight 7:06 AM CST 5:46 PM CST
Nautical Twilight 6:30 AM CST 6:22 PM CST
Astronomical Twilight 5:55 AM CST 6:57 PM CST
Moon 6:16 AM CST (1/29) 4:15 PM CST (1/29)
Length of Visible Light 10h 40m
Length of Day
9h 35m
Waning Crescent, 2% of the Moon is Illuminated
Jan 29
Waning Crescent
Jan 30
New
Feb 6
First Quarter
Feb 14
Full
Feb 22
Last Quarter

Hourly Weather History & Observations

Time (CST) Temp. Windchill Dew Point Humidity Pressure Visibility Wind Dir Wind Speed Gust Speed Precip Events Conditions
12:12 AM -7.6 °F -18.8 °F -14.8 °F 71% 30.01 in 10.0 mi SW 4.6 mph - N/A   Clear
12:33 AM -7.6 °F -20.6 °F -14.8 °F 71% 30.00 in 10.0 mi WSW 5.8 mph - N/A   Clear
12:52 AM -7.6 °F -20.6 °F -14.8 °F 71% 29.99 in 10.0 mi SW 5.8 mph - N/A   Clear
1:13 AM -7.6 °F -20.6 °F -14.8 °F 71% 29.99 in 10.0 mi SW 5.8 mph - N/A   Clear
1:33 AM -7.6 °F -20.6 °F -14.8 °F 71% 29.99 in 10.0 mi SW 5.8 mph - N/A   Clear
1:52 AM -7.6 °F -22.1 °F -14.8 °F 71% 29.99 in 10.0 mi SW 6.9 mph - N/A   Clear
2:13 AM -7.6 °F -20.6 °F -14.8 °F 71% 29.99 in 10.0 mi SW 5.8 mph - N/A   Clear
2:33 AM -7.6 °F -22.1 °F -14.8 °F 71% 29.98 in 10.0 mi SW 6.9 mph - N/A   Clear
2:52 AM -7.6 °F -18.8 °F -14.8 °F 71% 29.98 in 10.0 mi SW 4.6 mph - N/A   Clear
3:12 AM -7.6 °F -18.8 °F -14.8 °F 71% 29.98 in 10.0 mi SW 4.6 mph - N/A   Clear
3:33 AM -9.4 °F -22.7 °F -16.6 °F 71% 29.97 in 10.0 mi SSW 5.8 mph - N/A   Clear
3:52 AM -9.4 °F -20.9 °F -16.6 °F 71% 29.97 in 10.0 mi SSW 4.6 mph - N/A   Clear
4:13 AM -9.4 °F -18.6 °F -16.6 °F 71% 29.97 in 10.0 mi SW 3.5 mph - N/A   Clear
4:33 AM -9.4 °F -20.9 °F -16.6 °F 71% 29.96 in 10.0 mi SW 4.6 mph - N/A   Clear
4:53 AM -9.4 °F -20.9 °F -16.6 °F 71% 29.96 in 10.0 mi SW 4.6 mph - N/A   Clear
5:13 AM -9.4 °F -20.9 °F -16.6 °F 71% 29.95 in 10.0 mi SSW 4.6 mph - N/A   Clear
5:33 AM -9.4 °F -18.6 °F -16.6 °F 71% 29.95 in 10.0 mi SSW 3.5 mph - N/A   Clear
5:52 AM -9.4 °F - -16.6 °F 71% 29.94 in 10.0 mi Calm Calm - N/A   Clear
6:12 AM -11.2 °F - -16.6 °F 77% 29.93 in 10.0 mi Calm Calm - N/A   Clear
6:33 AM -16.6 °F - -23.8 °F 70% 29.92 in 10.0 mi Calm Calm - N/A   Clear
6:52 AM -16.6 °F - -22.0 °F 76% 29.92 in 10.0 mi Calm Calm - N/A   Clear
7:13 AM -20.2 °F - -25.6 °F 76% 29.93 in 10.0 mi Calm Calm - N/A   Clear
7:33 AM -18.4 °F -28.9 °F -25.6 °F 70% 29.90 in 10.0 mi SSE 3.5 mph - N/A   Clear
7:52 AM -14.8 °F -27.2 °F -18.4 °F 84% 29.89 in 10.0 mi SSE 4.6 mph - N/A   Clear
8:13 AM -13.0 °F - -16.6 °F 84% 29.90 in 10.0 mi Calm Calm - N/A   Clear
8:32 AM -7.6 °F - -13.0 °F 77% 29.89 in 10.0 mi Calm Calm - N/A   Clear
8:53 AM -5.8 °F - -11.2 °F 77% 29.89 in 10.0 mi Calm Calm - N/A   Clear
9:12 AM -5.8 °F -14.5 °F -11.2 °F 77% 29.88 in 10.0 mi South 3.5 mph - N/A   Clear
9:32 AM -4.0 °F -12.4 °F -9.4 °F 78% 29.88 in 10.0 mi South 3.5 mph - N/A   Clear
9:53 AM -0.4 °F -8.3 °F -9.4 °F 66% 29.87 in 10.0 mi South 3.5 mph - N/A   Clear
10:12 AM -0.4 °F - -9.4 °F 66% 29.86 in 10.0 mi Calm Calm - N/A   Clear
10:32 AM 1.4 °F -9.9 °F -7.6 °F 66% 29.85 in 10.0 mi SSW 5.8 mph - N/A   Clear
10:53 AM 5.0 °F -5.6 °F -5.8 °F 61% 29.85 in 10.0 mi SSW 5.8 mph - N/A   Clear
11:12 AM 6.8 °F -2.0 °F -5.8 °F 56% 29.84 in 10.0 mi South 4.6 mph - N/A   Clear
11:33 AM 8.6 °F -1.3 °F -4.0 °F 57% 29.83 in 10.0 mi South 5.8 mph - N/A   Clear
11:52 AM 10.4 °F -0.4 °F -2.2 °F 57% 29.81 in 10.0 mi South 6.9 mph - N/A   Clear
12:12 PM 12.2 °F 0.7 °F -0.4 °F 57% 29.79 in 10.0 mi South 8.1 mph - N/A   Clear
12:33 PM 14.0 °F 1.2 °F -0.4 °F 53% 29.75 in 10.0 mi South 10.4 mph - N/A   Clear
12:52 PM 17.6 °F 7.3 °F 1.4 °F 49% 29.73 in 10.0 mi South 8.1 mph - N/A   Clear
1:13 PM 17.6 °F 5.7 °F 1.4 °F 49% 29.72 in 10.0 mi South 10.4 mph - N/A   Clear
1:32 PM 19.4 °F 7.9 °F 1.4 °F 46% 29.68 in 10.0 mi South 10.4 mph - N/A   Clear
1:53 PM 21.2 °F 10.1 °F 3.2 °F 46% 29.66 in 10.0 mi South 10.4 mph - N/A   Clear
2:12 PM 21.2 °F 10.1 °F 3.2 °F 46% 29.65 in 10.0 mi South 10.4 mph 17.3 mph N/A   Clear
2:33 PM 23.0 °F 11.7 °F 3.2 °F 43% 29.65 in 10.0 mi South 11.5 mph 19.6 mph N/A   Clear
2:52 PM 23.0 °F 11.1 °F 5.0 °F 46% 29.63 in 5.0 mi SSW 12.7 mph 23.0 mph N/A   Haze
3:12 PM 24.8 °F 14.6 °F 5.0 °F 43% 29.61 in 10.0 mi South 10.4 mph - N/A   Clear
3:33 PM 24.8 °F 14.6 °F 6.8 °F 46% 29.60 in 10.0 mi South 10.4 mph - N/A   Mostly Cloudy
3:52 PM 23.0 °F 13.1 °F 5.0 °F 46% 29.59 in 10.0 mi South 9.2 mph - N/A   Scattered Clouds
4:13 PM 23.0 °F 13.1 °F 5.0 °F 46% 29.58 in 10.0 mi South 9.2 mph - N/A   Scattered Clouds
4:32 PM 23.0 °F 12.4 °F 6.8 °F 50% 29.58 in 10.0 mi South 10.4 mph - N/A   Scattered Clouds
4:53 PM 23.0 °F 10.6 °F 8.6 °F 54% 29.57 in 10.0 mi South 13.8 mph - N/A   Clear
5:12 PM 23.0 °F 13.9 °F 8.6 °F 54% 29.56 in 10.0 mi South 8.1 mph - N/A   Clear
5:33 PM 21.2 °F 11.7 °F 8.6 °F 58% 29.56 in 10.0 mi South 8.1 mph - N/A   Clear
5:53 PM 21.2 °F 11.7 °F 10.4 °F 63% 29.56 in 10.0 mi South 8.1 mph - N/A   Clear
6:13 PM 21.2 °F 12.6 °F 10.4 °F 63% 29.55 in 10.0 mi South 6.9 mph - N/A   Clear
6:33 PM 21.2 °F 13.6 °F 10.4 °F 63% 29.55 in 10.0 mi South 5.8 mph - N/A   Clear
6:52 PM 21.2 °F 12.6 °F 10.4 °F 63% 29.55 in 10.0 mi South 6.9 mph - N/A   Clear
7:13 PM 23.0 °F 14.7 °F 12.2 °F 63% 29.55 in 10.0 mi SSW 6.9 mph - N/A   Clear
7:33 PM 23.0 °F 14.7 °F 12.2 °F 63% 29.55 in 10.0 mi SSW 6.9 mph - N/A   Clear
7:53 PM 24.8 °F 16.9 °F 14.0 °F 64% 29.55 in 10.0 mi SW 6.9 mph - N/A   Clear
8:13 PM 23.0 °F 17.0 °F 14.0 °F 68% 29.55 in 10.0 mi WSW 4.6 mph - N/A   Clear
8:32 PM 21.2 °F 13.6 °F 14.0 °F 74% 29.56 in 10.0 mi SW 5.8 mph - N/A   Scattered Clouds
8:53 PM 21.2 °F 14.9 °F 12.2 °F 68% 29.56 in 10.0 mi SW 4.6 mph - N/A   Clear
9:13 PM 21.2 °F 14.9 °F 12.2 °F 68% 29.56 in 10.0 mi WSW 4.6 mph - N/A   Clear
9:32 PM 19.4 °F - 12.2 °F 74% 29.56 in 10.0 mi Calm Calm - N/A   Clear
9:53 PM 21.2 °F 16.4 °F 12.2 °F 68% 29.56 in 10.0 mi SW 3.5 mph - N/A   Clear
10:12 PM 19.4 °F - 12.2 °F 74% 29.55 in 10.0 mi Calm Calm - N/A   Clear
10:33 PM 19.4 °F - 12.2 °F 74% 29.55 in 10.0 mi Calm Calm - N/A   Clear
10:53 PM 15.8 °F - 8.6 °F 73% 29.55 in 10.0 mi Calm Calm - N/A   Clear
11:13 PM 15.8 °F 10.2 °F 10.4 °F 79% 29.55 in 10.0 mi SW 3.5 mph - N/A   Clear
11:33 PM 15.8 °F - 10.4 °F 79% 29.55 in 10.0 mi Calm Calm - N/A   Clear
11:52 PM 15.8 °F - 10.4 °F 79% 29.55 in 10.0 mi Calm Calm - N/A   Clear